Weather History for Cairns, QU

Change the Weather History Date:

Tuesday, November 29, 2011

  Actual Average Record
Temperature  
Mean Temperature 83 °F -  
Max Temperature 90 °F 88 °F 91 °F (2012)
Min Temperature 76 °F 74 °F 68 °F (1996)
Cooling Degree Days 18    
Growing Degree Days 33 (Base 50)    
Moisture  
Dew Point 72 °F    
Average Humidity 69    
Maximum Humidity 89    
Minimum Humidity 49    
Precipitation  
Precipitation 0.00 in 0.25 in - ()
Sea Level Pressure  
Sea Level Pressure 29.84 in    
Wind  
Wind Speed 9 mph ()    
Max Wind Speed 16 mph    
Max Gust Speed -    
Visibility 7.1 miles    
Events      
Averages and records for this station are not official NWS values.
T = Trace of Precipitation, MM = Missing Value Source: Averaged Metar Reports

Daily Weather History Graph

Daily Weather History Graph

Search for Another Location

Airport:

Trip Planner

Search our weather history database for the weather conditions in past years. The results will help you decide how hot, cold, wet, or windy it might be!

Date:

Astronomy

Nov. 29, 2011 Rise Set
Actual Time 5:33 AM AEST 6:36 PM AEST
Civil Twilight 5:10 AM AEST 6:59 PM AEST
Nautical Twilight 4:42 AM AEST 7:27 PM AEST
Astronomical Twilight 4:14 AM AEST 7:56 PM AEST
Moon 9:12 AM AEST (11/29) 10:21 PM AEST (11/29)
Length of Visible Light 13h 49m
Length of Day
13h 02m
Waxing Crescent, 18% of the Moon is Illuminated
Nov 29
Waxing Crescent
Dec 2
First Quarter
Dec 11
Full
Dec 18
Last Quarter
Dec 25
New

Hourly Weather History & Observations

Time (AEST) Temp. Heat Index Dew Point Humidity Pressure Visibility Wind Dir Wind Speed Gust Speed Precip Events Conditions
12:00 AM 78.8 °F - 71.6 °F 78% 29.86 in 6.2 mi South 9.2 mph - N/A   Partly Cloudy
12:30 AM 78.8 °F - 71.6 °F 78% 29.86 in 6.2 mi SSE 8.1 mph - N/A   Partly Cloudy
1:00 AM 78 °F - 72 °F 77% 29.86 in - SSE 8.1 mph - -  
1:00 AM 78.8 °F - 71.6 °F 78% 29.83 in 6.2 mi SSE 8.1 mph - N/A   Partly Cloudy
1:30 AM 77.0 °F - 71.6 °F 83% 29.83 in 6.2 mi South 8.1 mph - N/A   Partly Cloudy
2:00 AM 78.8 °F - 71.6 °F 78% 29.83 in 6.2 mi South 8.1 mph - N/A   Partly Cloudy
2:30 AM 77.0 °F - 71.6 °F 83% 29.83 in 6.2 mi South 8.1 mph - N/A   Partly Cloudy
3:00 AM 78 °F - 71 °F 75% 29.82 in 19 mi South 8.1 mph - -   Partly Cloudy
3:00 AM 78.8 °F - 71.6 °F 78% 29.80 in 6.2 mi South 8.1 mph - N/A   Partly Cloudy
3:30 AM 77.0 °F - 71.6 °F 83% 29.80 in 6.2 mi South 9.2 mph - N/A   Partly Cloudy
4:00 AM 78 °F - 71 °F 72% 29.83 in - South 10.4 mph - -  
4:00 AM 78.8 °F - 69.8 °F 74% 29.80 in 6.2 mi South 10.4 mph - N/A   Partly Cloudy
4:30 AM 78.8 °F - 69.8 °F 74% 29.83 in 6.2 mi South 6.9 mph - N/A   Scattered Clouds
5:00 AM 77.0 °F - 69.8 °F 78% 29.83 in 6.2 mi SSE 8.1 mph - N/A   Partly Cloudy
5:30 AM 78.8 °F - 69.8 °F 74% 29.83 in 6.2 mi South 10.4 mph - N/A   Partly Cloudy
6:00 AM 79 °F - 71 °F 69% 29.85 in 19 mi South 9.2 mph - -   Partly Cloudy
6:00 AM 78.8 °F - 71.6 °F 78% 29.83 in 6.2 mi South 9.2 mph - N/A   Partly Cloudy
6:30 AM 80.6 °F 84.6 °F 71.6 °F 74% 29.86 in 6.2 mi South 8.1 mph - N/A   Partly Cloudy
7:00 AM 81 °F - 71 °F 63% 29.87 in - South 9.2 mph - -  
7:00 AM 80.6 °F 83.9 °F 69.8 °F 70% 29.86 in 6.2 mi South 9.2 mph - N/A   Partly Cloudy
7:30 AM 82.4 °F 87.2 °F 71.6 °F 70% 29.86 in 6.2 mi South 9.2 mph - N/A   Partly Cloudy
8:00 AM 82.4 °F 87.2 °F 71.6 °F 70% 29.86 in 6.2 mi South 10.4 mph - N/A   Partly Cloudy
8:30 AM 86.0 °F 93.4 °F 73.4 °F 66% 29.89 in 6.2 mi South 9.2 mph - N/A   Partly Cloudy
9:00 AM 86 °F - 74 °F 59% 29.89 in 16 mi South 8.1 mph - -   Partly Cloudy
9:00 AM 86.0 °F 93.4 °F 73.4 °F 66% 29.89 in 6.2 mi South 8.1 mph - N/A   Partly Cloudy
9:30 AM 86.0 °F 93.4 °F 73.4 °F 66% 29.89 in 6.2 mi SSE 8.1 mph - N/A   Partly Cloudy
10:00 AM 87 °F - 72 °F 53% 29.90 in - SE 8.1 mph - -  
10:00 AM 87.8 °F 93.8 °F 71.6 °F 58% 29.89 in 6.2 mi SE 8.1 mph - N/A   Partly Cloudy
10:30 AM 87.8 °F 95.6 °F 73.4 °F 62% 29.89 in 6.2 mi East 8.1 mph - N/A   Partly Cloudy
11:00 AM 89.6 °F 96.2 °F 71.6 °F 55% 29.86 in 6.2 mi East 10.4 mph - N/A   Partly Cloudy
11:30 AM 89.6 °F 98.2 °F 73.4 °F 59% 29.86 in 6.2 mi East 10.4 mph - N/A   Partly Cloudy
12:00 PM 90 °F - 74 °F 51% 29.84 in 12 mi NE 11.5 mph - -   Haze
12:00 PM 89.6 °F 98.2 °F 73.4 °F 59% 29.83 in 6.2 mi NE 11.5 mph - N/A   Partly Cloudy
12:30 PM 89.6 °F 98.2 °F 73.4 °F 59% 29.83 in 6.2 mi NE 13.8 mph - N/A   Partly Cloudy
1:00 PM 89 °F - 72 °F 49% 29.83 in - ENE 11.5 mph - -  
1:00 PM 89.6 °F 96.2 °F 71.6 °F 55% 29.80 in 6.2 mi ENE 11.5 mph - N/A   Partly Cloudy
1:30 PM 89.6 °F 98.2 °F 73.4 °F 59% 29.80 in 6.2 mi ENE 12.7 mph - N/A   Partly Cloudy
2:00 PM 89.6 °F 96.2 °F 71.6 °F 55% 29.80 in 6.2 mi ENE 12.7 mph - N/A   Partly Cloudy
2:30 PM 89.6 °F 96.2 °F 71.6 °F 55% 29.80 in 6.2 mi East 13.8 mph - N/A   Partly Cloudy
3:00 PM 89 °F - 73 °F 50% 29.79 in 9 mi East 13.8 mph - -   Haze
3:00 PM 87.8 °F 95.6 °F 73.4 °F 62% 29.77 in 6.2 mi East 13.8 mph - N/A   Partly Cloudy
3:30 PM 87.8 °F 95.6 °F 73.4 °F 62% 29.77 in 6.2 mi ESE 15.0 mph - N/A   Scattered Clouds
4:00 PM 87 °F - 72 °F 51% 29.81 in - SE 16.1 mph - -  
4:00 PM 86.0 °F 91.8 °F 71.6 °F 62% 29.80 in 6.2 mi SE 16.1 mph - N/A   Scattered Clouds
4:30 PM 87.8 °F 93.8 °F 71.6 °F 58% 29.77 in 6.2 mi SE 11.5 mph - N/A   Scattered Clouds
5:00 PM 86.0 °F 91.8 °F 71.6 °F 62% 29.80 in 6.2 mi SE 13.8 mph - N/A   Partly Cloudy
5:30 PM 86.0 °F 93.4 °F 73.4 °F 66% 29.80 in 6.2 mi SE 11.5 mph - N/A   Scattered Clouds
6:00 PM 84 °F - 73 °F 63% 29.82 in - SE 13.8 mph - -  
6:00 PM 84.2 °F 90.9 °F 73.4 °F 70% 29.80 in 6.2 mi SE 13.8 mph - N/A   Scattered Clouds
6:30 PM 84.2 °F 90.9 °F 73.4 °F 70% 29.80 in 6.2 mi SE 12.7 mph - N/A   Scattered Clouds
7:00 PM 82 °F - 74 °F 70% 29.83 in - SSE 11.5 mph - -  
7:00 PM 82.4 °F 88.2 °F 73.4 °F 74% 29.80 in 6.2 mi SSE 11.5 mph - N/A   Partly Cloudy
7:30 PM 82.4 °F 88.2 °F 73.4 °F 74% 29.83 in 6.2 mi SSE 12.7 mph - N/A   Partly Cloudy
8:00 PM 80.6 °F 85.4 °F 73.4 °F 79% 29.83 in 6.2 mi South 10.4 mph - N/A   Partly Cloudy
8:30 PM 80.6 °F 85.4 °F 73.4 °F 79% 29.83 in 6.2 mi South 6.9 mph - N/A   Partly Cloudy
9:00 PM 80 °F - 74 °F 77% 29.86 in 12 mi SSE 6.9 mph - -   Partly Cloudy
9:00 PM 80.6 °F 85.4 °F 73.4 °F 79% 29.86 in 6.2 mi SSE 6.9 mph - N/A   Scattered Clouds
9:30 PM 80.6 °F 85.4 °F 73.4 °F 79% 29.86 in 6.2 mi South 9.2 mph - N/A   Scattered Clouds
10:00 PM 80 °F - 74 °F 78% 29.87 in - South 9.2 mph - -  
10:00 PM 80.6 °F 86.2 °F 75.2 °F 84% 29.86 in 6.2 mi South 9.2 mph - N/A   Scattered Clouds
10:30 PM 80.6 °F 85.4 °F 73.4 °F 79% 29.86 in 6.2 mi SSE 9.2 mph - N/A   Scattered Clouds
11:00 PM 80.6 °F 85.4 °F 73.4 °F 79% 29.86 in 6.2 mi SSE 9.2 mph - N/A   Scattered Clouds
11:30 PM 78.8 °F - 75.2 °F 89% 29.86 in 6.2 mi South 8.1 mph - N/A   Scattered Clouds